This demonstration page uses our WeatherBlox Daily Observations layout. Learn more.

Left ArrowRight Arrow

39.51506, -84.39828

Hourly Observations for June 8, 2016

Temp ( °F °C ) Dew Point ( °F °C ) Humidity (%) Winds ( mph kmh ) Pressure ( in mb ) Visibility ( mi km ) Precip ( " mm )
12:15 am 00:15 Mostly Cloudy 57 13.8 50 10 78 78 N N/A 29.88 1012 10 16 N/A
12:35 am 00:35 Partly Cloudy 55 12.5 48 8.7 78 78 N N/A 29.88 1012 10 16 N/A
12:55 am 00:55 Clear 55 12.5 48 8.8 78 78 N N/A 29.88 1012 10 16 N/A
1:35 am 01:35 Clear 57 13.8 48 8.8 72 72 NNW 3 6 29.91 1013 10 16 N/A
1:55 am 01:55 Clear 56 13.5 48 8.9 74 74 NNW 5 7 29.91 1013 10 16 N/A
2:15 am 02:15 Clear 55 12.6 47 8.1 74 74 N 5 7 29.91 1013 10 16 N/A
2:35 am 02:35 Clear 55 12.8 47 8.3 74 74 N N/A 29.91 1013 10 16 N/A
2:55 am 02:55 Partly Cloudy 55 12.5 46 7.9 74 74 N N/A 29.91 1013 10 16 N/A
3:15 am 03:15 Partly Cloudy 55 12.5 46 8 74 74 N N/A 29.91 1013 10 16 N/A
3:35 am 03:35 Partly Cloudy 55 12.5 47 8.6 77 77 N N/A 29.91 1013 10 16 N/A
3:55 am 03:55 Clear 55 12.5 48 9 79 79 N N/A 29.91 1013 10 16 N/A
4:15 am 04:15 Partly Cloudy 55 12.5 48 8.9 79 79 N N/A 29.91 1013 10 16 N/A
4:35 am 04:35 Mostly Cloudy 55 12.5 46 7.6 72 72 N N/A 29.94 1014 10 16 N/A
4:55 am 04:55 Partly Cloudy 55 12.7 46 7.7 72 72 N N/A 29.94 1014 10 16 N/A
5:15 am 05:15 Mostly Cloudy 55 12.5 46 7.8 73 73 N N/A 29.94 1014 10 16 N/A
5:35 am 05:35 Mostly Cloudy 55 12.5 47 8.3 76 76 N N/A 29.94 1014 10 16 N/A
5:55 am 05:55 Mostly Cloudy 55 12.6 46 7.7 72 72 NW 3 6 29.97 1015 10 16 N/A
6:15 am 06:15 Partly Cloudy 55 12.5 46 7.6 72 72 NNW 6 9 29.97 1015 10 16 N/A
6:35 am 06:35 Sunny 55 12.5 46 7.9 74 74 NNW 5 7 29.97 1015 10 16 N/A
6:55 am 06:55 Sunny 55 12.5 45 7.3 71 71 NNW 3 6 29.97 1015 10 16 N/A
7:15 am 07:15 Sunny 55 12.5 46 7.8 73 73 N 3 6 29.97 1015 10 16 N/A
7:35 am 07:35 Sunny 57 13.8 47 8.5 71 71 N N/A 30.00 1016 10 16 N/A
7:55 am 07:55 Sunny 60 15.3 48 9.1 67 67 N N/A 29.97 1015 10 16 N/A
8:15 am 08:15 Sunny 60 15.3 47 8.2 63 63 N 7 11 29.97 1015 10 16 N/A
8:35 am 08:35 Sunny 60 15.5 45 7.4 59 59 NNW 5 7 30.00 1016 10 16 N/A
8:55 am 08:55 Sunny 61 16 44 6.6 54 54 NNW 5 7 30.00 1016 10 16 N/A
9:15 am 09:15 Sunny 62 16.6 42 5.4 48 48 NNW 5 7 30.00 1016 10 16 N/A
9:35 am 09:35 Sunny 63 17 40 4.6 44 44 NNW 10 17 30.00 1016 10 16 N/A
9:55 am 09:55 Sunny 64 18 41 4.8 42 42 NNW 9 15 30.00 1016 10 16 N/A
10:15 am 10:15 Sunny 66 18.7 42 5.3 42 42 WNW 5 7 30.00 1016 10 16 N/A
10:35 am 10:35 Sunny 67 19.5 41 5 39 39 N 6 9 30.00 1016 10 16 N/A
10:55 am 10:55 Sunny 69 20.8 44 6.4 39 39 W 8 13 30.00 1016 10 16 N/A
11:15 am 11:15 Partly Cloudy 69 20.4 41 4.9 36 36 W 7 11 30.00 1016 10 16 N/A
11:35 am 11:35 Partly Cloudy 69 20.8 42 5.7 37 37 W 7 11 30.00 1016 10 16 N/A
11:55 am 11:55 Partly Cloudy 69 20.8 41 4.9 35 35 NW 7 11 30.00 1016 10 16 N/A
12:15 pm 12:15 Partly Cloudy 69 20.8 37 2.7 30 30 WNW 6 9 30.00 1016 10 16 N/A
12:35 pm 12:35 Partly Cloudy 69 20.8 36 2 29 29 WNW 5 7 30.00 1016 10 16 N/A
12:55 pm 12:55 Partly Cloudy 71 21.7 35 1.9 27 27 NNW 9 15 30.00 1016 10 16 N/A
1:15 pm 13:15 Partly Cloudy 71 21.7 37 2.7 29 29 WNW 9 15 30.00 1016 10 16 N/A
1:35 pm 13:35 Partly Cloudy 74 23.1 37 2.8 27 27 WNW 9 15 30.00 1016 10 16 N/A
1:55 pm 13:55 Partly Cloudy 74 23.6 37 2.7 26 26 NNW 5 7 29.97 1015 10 16 N/A
2:15 pm 14:15 Sunny 74 23.6 38 3.2 26 26 WNW 10 17 29.97 1015 10 16 N/A
2:35 pm 14:35 Sunny 74 23.6 36 2.4 25 25 WNW 8 13 29.97 1015 10 16 N/A
2:55 pm 14:55 Partly Cloudy 74 23.6 36 2.2 25 25 W 12 19 29.97 1015 10 16 N/A
3:15 pm 15:15 Partly Cloudy 74 23.6 38 3.1 26 26 WNW 6 9 29.97 1015 10 16 N/A
3:35 pm 15:35 Sunny 74 23.6 35 1.9 24 24 W 13 20 29.97 1015 10 16 N/A
3:55 pm 15:55 Partly Cloudy 74 23.6 33 0.7 22 22 W 12 19 29.97 1015 10 16 N/A
4:15 pm 16:15 Partly Cloudy 74 23.6 32 0.2 21 21 SW 15 24 29.97 1015 10 16 N/A
4:35 pm 16:35 Partly Cloudy 74 23.6 32 -0.1 21 21 NW 7 11 29.97 1015 10 16 N/A
4:55 pm 16:55 Sunny 75 23.7 32 -0.1 21 21 W 5 7 29.97 1015 10 16 N/A
5:15 pm 17:15 Sunny 74 23.6 32 0.2 21 21 WNW 9 15 29.97 1015 10 16 N/A
5:35 pm 17:35 Sunny 75 23.8 28 -2.5 17 17 NW 10 17 29.97 1015 10 16 N/A
5:55 pm 17:55 Sunny 74 23.6 26 -3.6 16 16 WNW 6 9 29.97 1015 10 16 N/A
6:15 pm 18:15 Sunny 77 24.8 30 -1 18 18 W 10 17 29.94 1014 10 16 N/A
6:35 pm 18:35 Sunny 74 23.6 28 -2.1 18 18 W 7 11 29.94 1014 10 16 N/A
6:55 pm 18:55 Sunny 74 23.6 28 -2.3 18 18 W 8 13 29.94 1014 10 16 N/A
7:15 pm 19:15 Sunny 74 23.6 30 -0.9 20 20 W 12 19 29.94 1014 10 16 N/A
7:35 pm 19:35 Sunny 74 23.6 30 -1 20 20 WNW 5 7 29.97 1015 10 16 N/A
7:55 pm 19:55 Sunny 74 23.6 34 1.2 23 23 WNW 5 7 29.97 1015 10 16 N/A
8:15 pm 20:15 Sunny 74 23.6 39 3.8 28 28 W 5 7 29.97 1015 10 16 N/A
8:35 pm 20:35 Sunny 71 21.8 35 1.4 26 26 W 3 6 29.97 1015 10 16 N/A
8:55 pm 20:55 Sunny 67 19.6 47 8.2 48 48 N N/A 29.97 1015 10 16 N/A
9:15 pm 21:15 Clear 62 16.9 44 6.9 52 52 W 3 6 29.97 1015 10 16 N/A
9:35 pm 21:35 Clear 61 16 47 8.1 60 60 N N/A 29.97 1015 10 16 N/A
9:55 pm 21:55 Clear 60 15.3 45 7.2 59 59 N N/A 29.97 1015 10 16 N/A
10:15 pm 22:15 Clear 60 15.3 47 8.6 65 65 N N/A 29.97 1015 10 16 N/A
10:35 pm 22:35 Clear 60 15.3 48 8.8 65 65 NE 5 7 30.03 1017 10 16 N/A
10:55 pm 22:55 Clear 60 15.3 46 8 62 62 N N/A 30.03 1017 10 16 N/A
11:15 pm 23:15 Clear 58 14.5 46 7.6 64 64 N 3 6 30.03 1017 10 16 N/A
11:35 pm 23:35 Clear 57 13.8 46 7.7 67 67 NNE 3 6 30.03 1017 10 16 N/A
11:55 pm 23:55 Clear 57 13.8 46 7.9 68 68 NNE 3 6 30.03 1017 10 16 N/A

Powered by AerisWeather